C/2019 N1 ( ATLAS )

Japanese version
Home page
Updated on July 19, 2019

---------------------------------------------------------------------

* Profile

Discovery Date July 5, 2019
Magnitude 18.6 mag
Discoverer Asteroid Terrestrial-Impact Last Alert System (ATLAS) search program

* Orbital Elements

Epoch 2020 Dec. 17.0 TT = JDT 2459200.5                                         
T 2020 Dec. 2.26467 TT                                  MPCLINUX                
q   1.7038131            (2000.0)            P               Q                  
z  +0.0008607      Peri.  193.52467     -0.93794578     +0.25739228             
 +/-0.0004881      Node    13.55859     -0.14441024     +0.31936691             
e   0.9985336      Incl.   82.42548     -0.31528303     -0.91200548             
From 101 observations 2019 June 10-July 11, mean residual 0".4.                 

* Finding Charts

* Magnitudes Graph

        m1 = 6.5 + 5 log d + 10.0 log r

---------------------------------------------------------------------

The orbital elements are published on M.P.E.C. 2019-N160.
The charts are made with StellaNavigator Ver.10 (AstroArts).
The magnitudes graphs are made with Comet for Windows.

---------------------------------------------------------------------

Copyright(C) Seiichi Yoshida (comet@aerith.net). All rights reserved.